Time,TemperatureF,DewpointF,PressureIn,WindDirection,WindDirectionDegrees,WindSpeedMPH,WindSpeedGustMPH,Humidity,HourlyPrecipIn,Conditions,Clouds,dailyrainin,SoftwareType,DateUTC
2013-02-07 00:03:00,58.1,52.0,29.81,ESE,119,0.0,0.0,80,0.00,,,0.00,meteohub,2013-02-07 06:03:00,
2013-02-07 00:08:00,57.9,51.8,29.81,ESE,119,0.0,0.0,80,0.00,,,0.00,meteohub,2013-02-07 06:08:00,
2013-02-07 00:13:00,57.7,51.6,29.81,ESE,119,0.0,0.0,80,0.00,,,0.00,meteohub,2013-02-07 06:13:00,
2013-02-07 00:18:00,57.6,51.8,29.81,ESE,119,0.0,0.0,81,0.00,,,0.00,meteohub,2013-02-07 06:18:00,
2013-02-07 00:23:00,57.4,51.6,29.81,ESE,119,0.0,0.0,81,0.00,,,0.00,meteohub,2013-02-07 06:23:00,
2013-02-07 00:28:00,56.8,51.1,29.82,ESE,119,0.0,0.0,81,0.00,,,0.00,meteohub,2013-02-07 06:28:00,
2013-02-07 00:33:00,56.7,51.3,29.82,ESE,119,0.0,0.0,82,0.00,,,0.00,meteohub,2013-02-07 06:33:00,
2013-02-07 00:38:00,56.5,51.4,29.82,ESE,119,0.0,0.0,83,0.00,,,0.00,meteohub,2013-02-07 06:38:00,
2013-02-07 00:43:00,56.3,51.3,29.81,ESE,119,0.0,0.0,83,0.00,,,0.00,meteohub,2013-02-07 06:43:00,
2013-02-07 00:49:00,56.3,51.4,29.82,ESE,119,0.0,0.0,84,0.00,,,0.00,meteohub,2013-02-07 06:49:00,
2013-02-07 00:54:00,56.3,51.4,29.82,ESE,119,0.0,0.0,84,0.00,,,0.00,meteohub,2013-02-07 06:54:00,
2013-02-07 00:59:00,56.1,51.4,29.82,ESE,119,0.0,0.0,84,0.00,,,0.00,meteohub,2013-02-07 06:59:00,
2013-02-07 01:04:00,56.1,51.4,29.82,ESE,119,0.0,0.0,84,0.00,,,0.00,meteohub,2013-02-07 07:04:00,
2013-02-07 01:09:00,55.9,51.3,29.82,ESE,119,0.0,0.0,84,0.00,,,0.00,meteohub,2013-02-07 07:09:00,
2013-02-07 01:14:00,55.9,51.3,29.83,ESE,119,0.0,0.0,84,0.00,,,0.00,meteohub,2013-02-07 07:14:00,
2013-02-07 01:19:00,55.8,51.1,29.83,ESE,119,0.0,0.0,84,0.00,,,0.00,meteohub,2013-02-07 07:19:00,
2013-02-07 01:24:00,55.8,51.1,29.83,ESE,119,0.0,0.0,84,0.00,,,0.00,meteohub,2013-02-07 07:24:00,
2013-02-07 01:29:00,55.6,51.1,29.83,ESE,119,0.0,0.0,85,0.00,,,0.00,meteohub,2013-02-07 07:29:00,
2013-02-07 01:34:00,55.6,51.1,29.83,ESE,119,0.0,0.0,85,0.00,,,0.00,meteohub,2013-02-07 07:34:00,
2013-02-07 01:39:00,55.4,50.9,29.83,ESE,119,0.0,0.0,85,0.00,,,0.00,meteohub,2013-02-07 07:39:00,
2013-02-07 01:44:00,55.2,50.7,29.83,ESE,119,0.0,0.0,85,0.00,,,0.00,meteohub,2013-02-07 07:44:00,
2013-02-07 01:49:00,55.2,50.7,29.83,ESE,119,0.0,0.0,85,0.00,,,0.00,meteohub,2013-02-07 07:49:00,
2013-02-07 01:54:00,55.0,50.5,29.83,ESE,119,0.0,0.0,85,0.00,,,0.00,meteohub,2013-02-07 07:54:00,
2013-02-07 01:59:00,54.9,50.7,29.83,ESE,119,0.0,0.0,86,0.00,,,0.00,meteohub,2013-02-07 07:59:00,
2013-02-07 02:04:00,54.9,51.1,29.83,ESE,119,0.0,0.0,87,0.00,,,0.00,meteohub,2013-02-07 08:04:00,
2013-02-07 02:09:00,54.9,51.1,29.83,ESE,119,0.0,0.0,87,0.00,,,0.00,meteohub,2013-02-07 08:09:00,
2013-02-07 02:14:00,54.9,50.7,29.83,ESE,119,0.0,0.0,86,0.00,,,0.00,meteohub,2013-02-07 08:14:00,
2013-02-07 02:19:00,54.9,51.1,29.83,ESE,119,0.0,0.0,87,0.00,,,0.00,meteohub,2013-02-07 08:19:00,
2013-02-07 02:24:00,54.7,50.9,29.83,ESE,119,0.0,6.0,87,0.00,,,0.00,meteohub,2013-02-07 08:24:00,
2013-02-07 02:29:00,55.2,52.0,29.83,SW,234,3.0,6.0,89,0.00,,,0.00,meteohub,2013-02-07 08:29:00,
2013-02-07 02:34:00,55.9,53.1,29.84,SW,233,0.0,10.0,90,0.00,,,0.00,meteohub,2013-02-07 08:34:00,
2013-02-07 02:39:00,56.7,53.4,29.84,SW,231,3.0,11.0,89,0.00,,,0.00,meteohub,2013-02-07 08:39:00,
2013-02-07 02:44:00,57.2,53.6,29.83,SW,219,0.0,11.0,88,0.00,,,0.00,meteohub,2013-02-07 08:44:00,
2013-02-07 02:49:00,57.6,54.3,29.83,SW,215,6.0,12.0,89,0.00,,,0.00,meteohub,2013-02-07 08:49:00,
2013-02-07 02:54:00,58.3,55.0,29.83,SW,222,3.0,12.0,89,0.00,,,0.00,meteohub,2013-02-07 08:54:00,
2013-02-07 02:59:00,58.6,55.4,29.83,WSW,246,6.0,15.0,89,0.00,,,0.00,meteohub,2013-02-07 08:59:00,
2013-02-07 03:04:00,59.0,55.4,29.83,SW,225,0.0,15.0,88,0.00,,,0.00,meteohub,2013-02-07 09:04:00,
2013-02-07 03:09:00,59.4,55.8,29.83,SW,227,4.0,11.0,88,0.00,,,0.00,meteohub,2013-02-07 09:09:00,
2013-02-07 03:14:00,59.5,55.9,29.83,SW,229,0.0,10.0,88,0.00,,,0.00,meteohub,2013-02-07 09:14:00,
2013-02-07 03:19:00,59.7,55.8,29.83,SW,230,0.0,10.0,87,0.00,,,0.00,meteohub,2013-02-07 09:19:00,
2013-02-07 03:24:00,60.1,56.1,29.83,SW,230,0.0,8.0,87,0.00,,,0.00,meteohub,2013-02-07 09:24:00,
2013-02-07 03:29:00,60.1,56.1,29.83,SW,219,0.0,8.0,87,0.00,,,0.00,meteohub,2013-02-07 09:29:00,
2013-02-07 03:34:00,60.3,56.1,29.84,SSW,205,0.0,7.0,86,0.00,,,0.00,meteohub,2013-02-07 09:34:00,
2013-02-07 03:39:00,60.3,56.1,29.84,SSW,205,0.0,7.0,86,0.00,,,0.00,meteohub,2013-02-07 09:39:00,
2013-02-07 03:44:00,60.4,56.3,29.83,SSW,205,0.0,0.0,86,0.00,,,0.00,meteohub,2013-02-07 09:44:00,
2013-02-07 03:49:00,60.4,56.3,29.83,SSW,205,0.0,0.0,86,0.00,,,0.00,meteohub,2013-02-07 09:49:00,
2013-02-07 03:54:00,60.4,56.3,29.83,SW,231,0.0,1.0,86,0.00,,,0.00,meteohub,2013-02-07 09:54:00,
2013-02-07 03:59:00,60.4,56.3,29.83,SW,231,0.0,1.0,86,0.00,,,0.00,meteohub,2013-02-07 09:59:00,
2013-02-07 04:04:00,60.4,56.3,29.83,South,180,0.0,10.0,86,0.00,,,0.00,meteohub,2013-02-07 10:04:00,
2013-02-07 04:09:00,60.3,56.1,29.83,SW,231,0.0,10.0,86,0.00,,,0.00,meteohub,2013-02-07 10:09:00,
2013-02-07 04:14:00,60.3,55.8,29.83,SW,221,0.0,5.0,85,0.00,,,0.00,meteohub,2013-02-07 10:14:00,
2013-02-07 04:19:00,60.3,55.8,29.83,SW,230,5.0,5.0,85,0.00,,,0.00,meteohub,2013-02-07 10:19:00,
2013-02-07 04:24:00,60.1,55.6,29.83,SW,229,0.0,5.0,85,0.00,,,0.00,meteohub,2013-02-07 10:24:00,
2013-02-07 04:29:00,59.9,55.4,29.83,SSE,148,0.0,7.0,85,0.00,,,0.00,meteohub,2013-02-07 10:29:00,
2013-02-07 04:35:00,59.7,55.2,29.83,SSE,148,0.0,7.0,85,0.00,,,0.00,meteohub,2013-02-07 10:35:00,
2013-02-07 04:40:00,59.5,55.0,29.83,SSE,148,0.0,1.0,85,0.00,,,0.00,meteohub,2013-02-07 10:40:00,
2013-02-07 04:45:00,59.2,54.7,29.83,SSE,148,0.0,1.0,85,0.00,,,0.00,meteohub,2013-02-07 10:45:00,
2013-02-07 04:50:00,58.8,54.7,29.83,SSE,148,0.0,0.0,86,0.00,,,0.00,meteohub,2013-02-07 10:50:00,
2013-02-07 04:55:00,58.6,54.5,29.83,SSE,148,0.0,0.0,86,0.00,,,0.00,meteohub,2013-02-07 10:55:00,
2013-02-07 05:00:00,58.3,54.1,29.83,SSE,148,0.0,0.0,86,0.00,,,0.00,meteohub,2013-02-07 11:00:00,
2013-02-07 05:05:00,58.1,54.3,29.83,SSE,148,0.0,0.0,87,0.00,,,0.00,meteohub,2013-02-07 11:05:00,
2013-02-07 05:10:00,57.9,54.1,29.83,SSE,148,0.0,0.0,87,0.00,,,0.00,meteohub,2013-02-07 11:10:00,
2013-02-07 05:15:00,57.7,54.0,29.83,SSE,148,0.0,0.0,87,0.00,,,0.00,meteohub,2013-02-07 11:15:00,
2013-02-07 05:20:00,57.6,53.8,29.83,SSE,148,0.0,0.0,87,0.00,,,0.00,meteohub,2013-02-07 11:20:00,
2013-02-07 05:25:00,57.4,53.6,29.83,SSE,148,0.0,0.0,87,0.00,,,0.00,meteohub,2013-02-07 11:25:00,
2013-02-07 05:30:00,57.2,53.6,29.83,SSE,148,0.0,0.0,88,0.00,,,0.00,meteohub,2013-02-07 11:30:00,
2013-02-07 05:35:00,57.0,53.4,29.83,SW,225,0.0,0.0,88,0.00,,,0.00,meteohub,2013-02-07 11:35:00,
2013-02-07 05:40:00,57.0,53.4,29.83,SW,225,0.0,4.0,88,0.00,,,0.00,meteohub,2013-02-07 11:40:00,
2013-02-07 05:45:00,57.0,53.8,29.83,SW,223,0.0,4.0,89,0.00,,,0.00,meteohub,2013-02-07 11:45:00,
2013-02-07 05:50:00,57.0,54.1,29.83,WSW,238,0.0,4.0,90,0.00,,,0.00,meteohub,2013-02-07 11:50:00,
2013-02-07 05:55:00,57.0,53.8,29.83,WSW,238,0.0,8.0,89,0.00,,,0.00,meteohub,2013-02-07 11:55:00,
2013-02-07 06:00:00,57.0,54.1,29.83,SW,217,0.0,8.0,90,0.00,,,0.00,meteohub,2013-02-07 12:00:00,
2013-02-07 06:05:00,57.0,53.8,29.83,SW,218,0.0,8.0,89,0.00,,,0.00,meteohub,2013-02-07 12:05:00,
2013-02-07 06:10:00,57.0,54.1,29.83,SW,224,0.0,8.0,90,0.00,,,0.00,meteohub,2013-02-07 12:10:00,
2013-02-07 06:15:00,57.0,53.8,29.83,SW,228,0.0,8.0,89,0.00,,,0.00,meteohub,2013-02-07 12:15:00,
2013-02-07 06:20:00,57.0,53.8,29.83,SW,228,0.0,8.0,89,0.00,,,0.00,meteohub,2013-02-07 12:20:00,
2013-02-07 06:25:00,56.8,54.0,29.83,SW,227,0.0,0.0,90,0.00,,,0.00,meteohub,2013-02-07 12:25:00,
2013-02-07 06:30:00,57.0,54.1,29.83,SW,233,6.0,0.0,90,0.00,,,0.00,meteohub,2013-02-07 12:30:00,
2013-02-07 06:35:00,57.0,54.1,29.83,SW,232,3.0,10.0,90,0.00,,,0.00,meteohub,2013-02-07 12:35:00,
2013-02-07 06:40:00,57.2,54.0,29.83,SW,232,0.0,10.0,89,0.00,,,0.00,meteohub,2013-02-07 12:40:00,
2013-02-07 06:45:00,57.0,53.8,29.83,SW,229,0.0,10.0,89,0.00,,,0.00,meteohub,2013-02-07 12:45:00,
2013-02-07 06:50:00,57.0,53.8,29.83,SW,229,0.0,10.0,89,0.00,,,0.00,meteohub,2013-02-07 12:50:00,
2013-02-07 06:55:00,56.8,53.6,29.83,SW,220,4.0,7.0,89,0.00,,,0.00,meteohub,2013-02-07 12:55:00,
2013-02-07 07:01:00,56.8,53.6,29.83,SW,227,0.0,7.0,89,0.00,,,0.00,meteohub,2013-02-07 13:01:00,
2013-02-07 07:06:00,56.7,53.4,29.83,SW,226,0.0,8.0,89,0.00,,,0.00,meteohub,2013-02-07 13:06:00,
2013-02-07 07:11:00,56.5,53.2,29.84,SW,226,0.0,8.0,89,0.00,,,0.00,meteohub,2013-02-07 13:11:00,
2013-02-07 07:16:00,56.3,53.1,29.84,SW,226,0.0,6.0,89,0.00,,,0.00,meteohub,2013-02-07 13:16:00,
2013-02-07 07:21:00,56.1,52.9,29.84,SW,226,0.0,0.0,89,0.00,,,0.00,meteohub,2013-02-07 13:21:00,
2013-02-07 07:26:00,55.9,53.1,29.85,SW,226,0.0,0.0,90,0.00,,,0.00,meteohub,2013-02-07 13:26:00,
2013-02-07 07:31:00,55.9,53.1,29.85,SW,226,0.0,0.0,90,0.00,,,0.00,meteohub,2013-02-07 13:31:00,
2013-02-07 07:36:00,55.8,53.2,29.85,SW,226,0.0,0.0,91,0.00,,,0.00,meteohub,2013-02-07 13:36:00,
2013-02-07 07:41:00,55.8,53.2,29.85,SW,226,0.0,0.0,91,0.00,,,0.00,meteohub,2013-02-07 13:41:00,
2013-02-07 07:46:00,55.8,53.2,29.85,WSW,237,0.0,0.0,91,0.00,,,0.00,meteohub,2013-02-07 13:46:00,
2013-02-07 07:51:00,55.8,53.2,29.86,SW,227,0.0,7.0,91,0.00,,,0.00,meteohub,2013-02-07 13:51:00,
2013-02-07 07:56:00,55.6,53.1,29.86,SW,227,0.0,7.0,91,0.00,,,0.00,meteohub,2013-02-07 13:56:00,
2013-02-07 08:01:00,55.6,53.1,29.86,SW,227,0.0,10.0,91,0.00,,,0.00,meteohub,2013-02-07 14:01:00,
2013-02-07 08:06:00,55.6,53.1,29.86,WSW,252,5.0,10.0,91,0.00,,,0.00,meteohub,2013-02-07 14:06:00,
2013-02-07 08:11:00,55.6,53.2,29.86,WSW,248,7.0,10.0,92,0.00,,,0.00,meteohub,2013-02-07 14:11:00,
2013-02-07 08:16:00,55.8,53.4,29.86,WSW,246,0.0,7.0,92,0.00,,,0.00,meteohub,2013-02-07 14:16:00,
2013-02-07 08:21:00,55.9,53.6,29.86,WSW,246,5.0,10.0,92,0.00,,,0.00,meteohub,2013-02-07 14:21:00,
2013-02-07 08:26:00,56.1,53.8,29.87,SW,220,7.0,10.0,92,0.00,,,0.00,meteohub,2013-02-07 14:26:00,
2013-02-07 08:31:00,56.3,53.8,29.87,SW,234,7.0,10.0,91,0.00,,,0.00,meteohub,2013-02-07 14:31:00,
2013-02-07 08:36:00,56.5,54.0,29.87,SW,232,7.0,12.0,91,0.00,,,0.00,meteohub,2013-02-07 14:36:00,
2013-02-07 08:41:00,56.8,54.5,29.88,WSW,254,6.0,12.0,92,0.00,,,0.00,meteohub,2013-02-07 14:41:00,
2013-02-07 08:46:00,57.4,54.9,29.88,WSW,247,3.0,11.0,91,0.00,,,0.00,meteohub,2013-02-07 14:46:00,
2013-02-07 08:51:00,57.7,55.2,29.88,WSW,237,12.0,13.0,91,0.00,,,0.00,meteohub,2013-02-07 14:51:00,
2013-02-07 08:56:00,58.6,55.9,29.88,West,259,11.0,14.0,91,0.00,,,0.00,meteohub,2013-02-07 14:56:00,
2013-02-07 09:01:00,59.4,56.5,29.88,WSW,237,5.0,18.0,90,0.00,,,0.00,meteohub,2013-02-07 15:01:00,
2013-02-07 09:06:00,60.3,57.0,29.88,West,278,7.0,19.0,89,0.00,,,0.00,meteohub,2013-02-07 15:06:00,
2013-02-07 09:11:00,61.0,57.0,29.88,WSW,252,5.0,20.0,87,0.00,,,0.00,meteohub,2013-02-07 15:11:00,
2013-02-07 09:16:00,61.3,57.2,29.88,SW,221,9.0,20.0,86,0.00,,,0.00,meteohub,2013-02-07 15:16:00,
2013-02-07 09:21:00,61.5,57.0,29.88,WSW,252,12.0,20.0,85,0.00,,,0.00,meteohub,2013-02-07 15:21:00,
2013-02-07 09:26:00,62.1,57.2,29.88,West,259,18.0,22.0,84,0.00,,,0.00,meteohub,2013-02-07 15:26:00,
2013-02-07 09:31:00,62.4,56.8,29.88,WSW,250,17.0,22.0,82,0.00,,,0.00,meteohub,2013-02-07 15:31:00,
2013-02-07 09:36:00,63.0,56.7,29.88,WSW,244,7.0,22.0,80,0.00,,,0.00,meteohub,2013-02-07 15:36:00,
2013-02-07 09:41:00,63.1,55.8,29.89,WSW,254,23.0,23.0,77,0.00,,,0.00,meteohub,2013-02-07 15:41:00,
2013-02-07 09:46:00,63.3,54.1,29.89,WSW,248,15.0,23.0,72,0.00,,,0.00,meteohub,2013-02-07 15:46:00,
2013-02-07 09:51:00,63.7,53.8,29.89,WSW,251,21.0,23.0,70,0.00,,,0.00,meteohub,2013-02-07 15:51:00,
2013-02-07 09:56:00,63.9,52.3,29.89,WSW,258,13.0,23.0,66,0.00,,,0.00,meteohub,2013-02-07 15:56:00,
2013-02-07 10:01:00,64.0,52.9,29.90,WSW,251,13.0,23.0,67,0.00,,,0.00,meteohub,2013-02-07 16:01:00,
2013-02-07 10:06:00,64.2,49.1,29.90,West,273,15.0,23.0,58,0.00,,,0.00,meteohub,2013-02-07 16:06:00,
2013-02-07 10:11:00,64.4,47.8,29.90,WNW,294,6.0,22.0,55,0.00,,,0.00,meteohub,2013-02-07 16:11:00,
2013-02-07 10:16:00,64.6,48.0,29.91,West,275,18.0,22.0,55,0.00,,,0.00,meteohub,2013-02-07 16:16:00,
2013-02-07 10:21:00,64.6,48.9,29.91,WSW,252,7.0,21.0,57,0.00,,,0.00,meteohub,2013-02-07 16:21:00,
2013-02-07 10:26:00,64.6,49.5,29.91,WSW,251,13.0,24.0,58,0.00,,,0.00,meteohub,2013-02-07 16:26:00,
2013-02-07 10:31:00,64.8,47.7,29.91,WSW,250,10.0,24.0,54,0.00,,,0.00,meteohub,2013-02-07 16:31:00,
2013-02-07 10:36:00,64.9,45.3,29.91,WSW,242,10.0,24.0,49,0.00,,,0.00,meteohub,2013-02-07 16:36:00,
2013-02-07 10:42:00,64.9,40.6,29.91,West,261,5.0,20.0,41,0.00,,,0.00,meteohub,2013-02-07 16:42:00,
2013-02-07 10:47:00,64.9,37.4,29.92,West,271,14.0,20.0,36,0.00,,,0.00,meteohub,2013-02-07 16:47:00,
2013-02-07 10:52:00,64.8,37.2,29.92,WSW,254,7.0,21.0,36,0.00,,,0.00,meteohub,2013-02-07 16:52:00,
2013-02-07 10:57:00,64.8,37.9,29.92,WSW,245,5.0,21.0,37,0.00,,,0.00,meteohub,2013-02-07 16:57:00,
2013-02-07 11:02:00,64.6,39.0,29.92,WSW,247,4.0,21.0,39,0.00,,,0.00,meteohub,2013-02-07 17:02:00,
2013-02-07 11:07:00,64.8,39.2,29.92,West,267,5.0,20.0,39,0.00,,,0.00,meteohub,2013-02-07 17:07:00,
2013-02-07 11:12:00,64.9,39.4,29.92,WSW,255,5.0,18.0,39,0.00,,,0.00,meteohub,2013-02-07 17:12:00,
2013-02-07 11:17:00,65.3,39.0,29.92,WNW,287,11.0,18.0,38,0.00,,,0.00,meteohub,2013-02-07 17:17:00,
2013-02-07 11:22:00,65.5,37.8,29.92,West,279,2.0,18.0,36,0.00,,,0.00,meteohub,2013-02-07 17:22:00,
2013-02-07 11:27:00,65.7,37.2,29.92,West,259,12.0,16.0,35,0.00,,,0.00,meteohub,2013-02-07 17:27:00,
2013-02-07 11:32:00,65.5,37.0,29.92,WNW,301,12.0,16.0,35,0.00,,,0.00,meteohub,2013-02-07 17:32:00,
2013-02-07 11:37:00,65.5,37.8,29.93,WNW,302,5.0,16.0,36,0.00,,,0.00,meteohub,2013-02-07 17:37:00,
2013-02-07 11:42:00,65.8,38.1,29.93,NW,311,12.0,16.0,36,0.00,,,0.00,meteohub,2013-02-07 17:42:00,
2013-02-07 11:47:00,65.7,37.2,29.93,NW,322,8.0,17.0,35,0.00,,,0.00,meteohub,2013-02-07 17:47:00,
2013-02-07 11:52:00,65.8,38.1,29.93,WNW,293,12.0,17.0,36,0.00,,,0.00,meteohub,2013-02-07 17:52:00,
2013-02-07 11:57:00,66.0,38.3,29.93,NW,317,2.0,19.0,36,0.00,,,0.00,meteohub,2013-02-07 17:57:00,
2013-02-07 12:02:00,66.2,37.8,29.93,NW,314,13.0,19.0,35,0.00,,,0.00,meteohub,2013-02-07 18:02:00,
2013-02-07 12:07:00,66.6,38.1,29.92,WNW,289,7.0,18.0,35,0.00,,,0.00,meteohub,2013-02-07 18:07:00,
2013-02-07 12:12:00,66.7,38.3,29.93,WNW,300,6.0,19.0,35,0.00,,,0.00,meteohub,2013-02-07 18:12:00,
2013-02-07 12:17:00,67.1,38.5,29.92,NW,304,8.0,20.0,35,0.00,,,0.00,meteohub,2013-02-07 18:17:00,
2013-02-07 12:22:00,67.3,37.9,29.92,WNW,298,1.0,20.0,34,0.00,,,0.00,meteohub,2013-02-07 18:22:00,
2013-02-07 12:27:00,67.6,38.3,29.92,WNW,301,6.0,18.0,34,0.00,,,0.00,meteohub,2013-02-07 18:27:00,
2013-02-07 12:32:00,67.8,38.5,29.91,WNW,295,11.0,16.0,34,0.00,,,0.00,meteohub,2013-02-07 18:32:00,
2013-02-07 12:37:00,68.2,38.7,29.92,WNW,294,2.0,16.0,34,0.00,,,0.00,meteohub,2013-02-07 18:37:00,
2013-02-07 12:42:00,68.0,38.7,29.91,West,269,10.0,21.0,34,0.00,,,0.00,meteohub,2013-02-07 18:42:00,
2013-02-07 12:47:00,68.0,38.7,29.91,WNW,298,8.0,21.0,34,0.00,,,0.00,meteohub,2013-02-07 18:47:00,
2013-02-07 12:52:00,68.2,38.7,29.91,NW,318,8.0,20.0,34,0.00,,,0.00,meteohub,2013-02-07 18:52:00,
2013-02-07 12:57:00,68.5,38.3,29.91,NNW,331,6.0,20.0,33,0.00,,,0.00,meteohub,2013-02-07 18:57:00,
2013-02-07 13:02:00,68.9,38.7,29.91,WNW,294,14.0,19.0,33,0.00,,,0.00,meteohub,2013-02-07 19:02:00,
2013-02-07 13:07:00,69.4,38.3,29.91,WNW,284,2.0,18.0,32,0.00,,,0.00,meteohub,2013-02-07 19:07:00,
2013-02-07 13:12:00,69.6,38.5,29.90,NW,306,4.0,17.0,32,0.00,,,0.00,meteohub,2013-02-07 19:12:00,
2013-02-07 13:17:00,70.2,38.8,29.91,WNW,300,6.0,18.0,32,0.00,,,0.00,meteohub,2013-02-07 19:17:00,
2013-02-07 13:22:00,70.2,38.8,29.90,NW,309,6.0,18.0,32,0.00,,,0.00,meteohub,2013-02-07 19:22:00,
2013-02-07 13:27:00,70.2,38.8,29.90,WNW,292,9.0,18.0,32,0.00,,,0.00,meteohub,2013-02-07 19:27:00,
2013-02-07 13:32:00,70.3,38.3,29.90,NNW,345,11.0,18.0,31,0.00,,,0.00,meteohub,2013-02-07 19:32:00,
2013-02-07 13:37:00,70.5,39.2,29.90,NNW,341,14.0,21.0,32,0.00,,,0.00,meteohub,2013-02-07 19:37:00,
2013-02-07 13:42:00,70.5,38.5,29.90,NW,306,12.0,21.0,31,0.00,,,0.00,meteohub,2013-02-07 19:42:00,
2013-02-07 13:47:00,70.7,38.7,29.90,WSW,253,2.0,21.0,31,0.00,,,0.00,meteohub,2013-02-07 19:47:00,
2013-02-07 13:52:00,70.9,39.6,29.90,NW,304,4.0,17.0,32,0.00,,,0.00,meteohub,2013-02-07 19:52:00,
2013-02-07 13:57:00,71.2,39.0,29.90,NW,322,11.0,17.0,31,0.00,,,0.00,meteohub,2013-02-07 19:57:00,
2013-02-07 14:02:00,71.4,38.3,29.90,WNW,297,1.0,17.0,30,0.00,,,0.00,meteohub,2013-02-07 20:02:00,
2013-02-07 14:07:00,71.4,38.3,29.90,WSW,251,10.0,19.0,30,0.00,,,0.00,meteohub,2013-02-07 20:07:00,
2013-02-07 14:12:00,71.2,38.3,29.90,NW,326,11.0,19.0,30,0.00,,,0.00,meteohub,2013-02-07 20:12:00,
2013-02-07 14:18:00,71.2,39.0,29.90,WNW,293,8.0,19.0,31,0.00,,,0.00,meteohub,2013-02-07 20:18:00,
2013-02-07 14:23:00,71.6,38.5,29.91,WNW,283,11.0,18.0,30,0.00,,,0.00,meteohub,2013-02-07 20:23:00,
2013-02-07 14:28:00,71.6,38.5,29.90,North,0,4.0,20.0,30,0.00,,,0.00,meteohub,2013-02-07 20:28:00,
2013-02-07 14:33:00,71.8,39.6,29.90,NNW,334,10.0,20.0,31,0.00,,,0.00,meteohub,2013-02-07 20:33:00,
2013-02-07 14:38:00,71.8,39.6,29.91,WNW,296,4.0,20.0,31,0.00,,,0.00,meteohub,2013-02-07 20:38:00,
2013-02-07 14:43:00,71.4,38.3,29.91,NNW,342,10.0,17.0,30,0.00,,,0.00,meteohub,2013-02-07 20:43:00,
2013-02-07 14:48:00,71.4,39.2,29.90,NW,323,4.0,19.0,31,0.00,,,0.00,meteohub,2013-02-07 20:48:00,
2013-02-07 14:53:00,71.2,39.0,29.90,NNW,334,10.0,19.0,31,0.00,,,0.00,meteohub,2013-02-07 20:53:00,
2013-02-07 14:58:00,71.2,39.0,29.91,NW,309,15.0,19.0,31,0.00,,,0.00,meteohub,2013-02-07 20:58:00,
2013-02-07 15:03:00,71.1,38.8,29.90,NW,304,2.0,19.0,31,0.00,,,0.00,meteohub,2013-02-07 21:03:00,
2013-02-07 15:08:00,71.4,39.2,29.91,WNW,298,15.0,19.0,31,0.00,,,0.00,meteohub,2013-02-07 21:08:00,
2013-02-07 15:13:00,71.2,39.0,29.91,NNW,336,15.0,18.0,31,0.00,,,0.00,meteohub,2013-02-07 21:13:00,
2013-02-07 15:18:00,71.1,38.8,29.90,NW,305,5.0,19.0,31,0.00,,,0.00,meteohub,2013-02-07 21:18:00,
2013-02-07 15:23:00,71.4,39.2,29.91,NW,319,13.0,19.0,31,0.00,,,0.00,meteohub,2013-02-07 21:23:00,
2013-02-07 15:28:00,71.6,38.5,29.91,WNW,295,7.0,21.0,30,0.00,,,0.00,meteohub,2013-02-07 21:28:00,
2013-02-07 15:33:00,71.4,38.3,29.91,WNW,301,11.0,21.0,30,0.00,,,0.00,meteohub,2013-02-07 21:33:00,
2013-02-07 15:38:00,71.4,39.2,29.91,WNW,288,4.0,21.0,31,0.00,,,0.00,meteohub,2013-02-07 21:38:00,
2013-02-07 15:43:00,71.4,38.3,29.91,NW,321,8.0,18.0,30,0.00,,,0.00,meteohub,2013-02-07 21:43:00,
2013-02-07 15:48:00,71.4,39.2,29.91,NNW,329,1.0,18.0,31,0.00,,,0.00,meteohub,2013-02-07 21:48:00,
2013-02-07 15:53:00,71.4,39.2,29.91,NNW,342,7.0,17.0,31,0.00,,,0.00,meteohub,2013-02-07 21:53:00,
2013-02-07 15:58:00,71.2,38.3,29.92,NNW,345,13.0,18.0,30,0.00,,,0.00,meteohub,2013-02-07 21:58:00,
2013-02-07 16:03:00,71.1,38.8,29.92,NNW,344,9.0,20.0,31,0.00,,,0.00,meteohub,2013-02-07 22:03:00,
2013-02-07 16:08:00,71.2,39.0,29.92,NW,312,2.0,20.0,31,0.00,,,0.00,meteohub,2013-02-07 22:08:00,
2013-02-07 16:13:00,71.2,39.0,29.92,North,349,13.0,20.0,31,0.00,,,0.00,meteohub,2013-02-07 22:13:00,
2013-02-07 16:18:00,70.9,38.7,29.92,NNW,333,5.0,18.0,31,0.00,,,0.00,meteohub,2013-02-07 22:18:00,
2013-02-07 16:23:00,70.7,38.7,29.92,North,5,8.0,18.0,31,0.00,,,0.00,meteohub,2013-02-07 22:23:00,
2013-02-07 16:28:00,70.5,39.2,29.93,NNW,337,9.0,18.0,32,0.00,,,0.00,meteohub,2013-02-07 22:28:00,
2013-02-07 16:33:00,70.3,39.0,29.93,NNW,333,16.0,20.0,32,0.00,,,0.00,meteohub,2013-02-07 22:33:00,
2013-02-07 16:38:00,70.3,39.0,29.93,NNW,337,8.0,20.0,32,0.00,,,0.00,meteohub,2013-02-07 22:38:00,
2013-02-07 16:43:00,70.0,39.6,29.94,NNW,344,10.0,20.0,33,0.00,,,0.00,meteohub,2013-02-07 22:43:00,
2013-02-07 16:48:00,69.6,39.2,29.94,NNW,341,11.0,18.0,33,0.00,,,0.00,meteohub,2013-02-07 22:48:00,
2013-02-07 16:53:00,69.4,39.9,29.94,NNW,344,13.0,22.0,34,0.00,,,0.00,meteohub,2013-02-07 22:53:00,
2013-02-07 16:58:00,69.4,40.6,29.94,NW,324,9.0,22.0,35,0.00,,,0.00,meteohub,2013-02-07 22:58:00,
2013-02-07 17:03:00,69.3,40.5,29.94,NNW,337,7.0,21.0,35,0.00,,,0.00,meteohub,2013-02-07 23:03:00,
2013-02-07 17:08:00,69.1,41.0,29.94,NW,313,14.0,19.0,36,0.00,,,0.00,meteohub,2013-02-07 23:08:00,
2013-02-07 17:13:00,68.9,41.5,29.95,North,11,3.0,19.0,37,0.00,,,0.00,meteohub,2013-02-07 23:13:00,
2013-02-07 17:18:00,68.5,42.6,29.95,NNW,339,16.0,19.0,39,0.00,,,0.00,meteohub,2013-02-07 23:18:00,
2013-02-07 17:23:00,68.2,43.0,29.95,NW,314,5.0,19.0,40,0.00,,,0.00,meteohub,2013-02-07 23:23:00,
2013-02-07 17:28:00,68.0,43.3,29.96,NNW,335,7.0,19.0,41,0.00,,,0.00,meteohub,2013-02-07 23:28:00,
2013-02-07 17:33:00,67.6,43.7,29.96,NNW,330,4.0,18.0,42,0.00,,,0.00,meteohub,2013-02-07 23:33:00,
2013-02-07 17:38:00,67.5,43.5,29.96,NNW,340,9.0,18.0,42,0.00,,,0.00,meteohub,2013-02-07 23:38:00,
2013-02-07 17:44:00,67.3,43.3,29.96,North,350,10.0,18.0,42,0.00,,,0.00,meteohub,2013-02-07 23:44:00,
2013-02-07 17:49:00,66.9,43.7,29.97,NNW,327,7.0,18.0,43,0.00,,,0.00,meteohub,2013-02-07 23:49:00,
2013-02-07 17:54:00,66.6,44.1,29.97,NNW,333,8.0,18.0,44,0.00,,,0.00,meteohub,2013-02-07 23:54:00,
2013-02-07 17:59:00,66.2,44.2,29.97,North,355,9.0,17.0,45,0.00,,,0.00,meteohub,2013-02-07 23:59:00,
2013-02-07 18:04:00,65.7,45.0,29.98,North,5,9.0,17.0,47,0.00,,,0.00,meteohub,2013-02-08 00:04:00,
2013-02-07 18:09:00,65.1,45.0,29.99,NW,305,6.0,18.0,48,0.00,,,0.00,meteohub,2013-02-08 00:09:00,
2013-02-07 18:14:00,64.6,45.0,29.99,North,5,5.0,18.0,49,0.00,,,0.00,meteohub,2013-02-08 00:14:00,
2013-02-07 18:19:00,64.0,45.0,29.99,NNW,341,5.0,18.0,50,0.00,,,0.00,meteohub,2013-02-08 00:19:00,
2013-02-07 18:24:00,63.7,45.1,29.99,NNW,347,6.0,17.0,51,0.00,,,0.00,meteohub,2013-02-08 00:24:00,
2013-02-07 18:29:00,63.3,45.0,30.00,North,350,0.0,17.0,51,0.00,,,0.00,meteohub,2013-02-08 00:29:00,
2013-02-07 18:34:00,63.0,44.6,30.00,North,355,8.0,17.0,51,0.00,,,0.00,meteohub,2013-02-08 00:34:00,
2013-02-07 18:39:00,62.8,44.4,30.01,NNW,330,10.0,17.0,51,0.00,,,0.00,meteohub,2013-02-08 00:39:00,
2013-02-07 18:44:00,62.4,44.1,30.01,North,350,0.0,17.0,51,0.00,,,0.00,meteohub,2013-02-08 00:44:00,
2013-02-07 18:49:00,62.2,44.4,30.02,NNW,343,0.0,14.0,52,0.00,,,0.00,meteohub,2013-02-08 00:49:00,
2013-02-07 18:54:00,61.9,44.6,30.02,North,0,0.0,13.0,53,0.00,,,0.00,meteohub,2013-02-08 00:54:00,
2013-02-07 18:59:00,61.5,44.2,30.02,NNW,344,0.0,9.0,53,0.00,,,0.00,meteohub,2013-02-08 00:59:00,
2013-02-07 19:04:00,61.3,44.6,30.03,NNW,333,0.0,11.0,54,0.00,,,0.00,meteohub,2013-02-08 01:04:00,
2013-02-07 19:09:00,61.2,44.4,30.03,NNW,336,0.0,11.0,54,0.00,,,0.00,meteohub,2013-02-08 01:09:00,
2013-02-07 19:14:00,60.8,44.6,30.04,NW,324,0.0,11.0,55,0.00,,,0.00,meteohub,2013-02-08 01:14:00,
2013-02-07 19:19:00,60.6,44.4,30.04,North,5,0.0,9.0,55,0.00,,,0.00,meteohub,2013-02-08 01:19:00,
2013-02-07 19:24:00,60.4,44.2,30.04,NNW,346,0.0,8.0,55,0.00,,,0.00,meteohub,2013-02-08 01:24:00,
2013-02-07 19:29:00,60.3,44.1,30.04,NNW,346,0.0,8.0,55,0.00,,,0.00,meteohub,2013-02-08 01:29:00,
2013-02-07 19:34:00,60.1,44.4,30.05,NW,326,0.0,4.0,56,0.00,,,0.00,meteohub,2013-02-08 01:34:00,
2013-02-07 19:39:00,59.7,44.1,30.05,NNW,329,1.0,5.0,56,0.00,,,0.00,meteohub,2013-02-08 01:39:00,
2013-02-07 19:44:00,59.5,43.9,30.05,NNW,329,0.0,5.0,56,0.00,,,0.00,meteohub,2013-02-08 01:44:00,
2013-02-07 19:49:00,59.4,44.1,30.06,NNW,329,0.0,7.0,57,0.00,,,0.00,meteohub,2013-02-08 01:49:00,
2013-02-07 19:54:00,59.2,43.9,30.06,NNW,329,0.0,7.0,57,0.00,,,0.00,meteohub,2013-02-08 01:54:00,
2013-02-07 19:59:00,58.8,43.7,30.06,NNW,329,0.0,6.0,57,0.00,,,0.00,meteohub,2013-02-08 01:59:00,
2013-02-07 20:04:00,58.6,43.5,30.07,NNW,329,0.0,6.0,57,0.00,,,0.00,meteohub,2013-02-08 02:04:00,
2013-02-07 20:09:00,58.5,43.7,30.07,NNW,329,0.0,0.0,58,0.00,,,0.00,meteohub,2013-02-08 02:09:00,
2013-02-07 20:14:00,58.3,43.5,30.07,NNW,329,0.0,0.0,58,0.00,,,0.00,meteohub,2013-02-08 02:14:00,
2013-02-07 20:19:00,58.1,43.3,30.08,NW,321,0.0,0.0,58,0.00,,,0.00,meteohub,2013-02-08 02:19:00,
2013-02-07 20:24:00,57.9,42.8,30.08,NNW,344,5.0,7.0,57,0.00,,,0.00,meteohub,2013-02-08 02:24:00,
2013-02-07 20:29:00,57.7,42.1,30.08,NNW,332,0.0,9.0,56,0.00,,,0.00,meteohub,2013-02-08 02:29:00,
2013-02-07 20:34:00,57.7,41.7,30.09,North,355,0.0,10.0,55,0.00,,,0.00,meteohub,2013-02-08 02:34:00,
2013-02-07 20:39:00,57.6,41.5,30.09,NNW,331,0.0,10.0,55,0.00,,,0.00,meteohub,2013-02-08 02:39:00,
2013-02-07 20:44:00,57.6,41.5,30.09,NNW,335,7.0,10.0,55,0.00,,,0.00,meteohub,2013-02-08 02:44:00,
2013-02-07 20:49:00,57.2,42.1,30.09,NNW,336,0.0,10.0,57,0.00,,,0.00,meteohub,2013-02-08 02:49:00,
2013-02-07 20:54:00,57.0,42.4,30.09,NW,318,0.0,10.0,58,0.00,,,0.00,meteohub,2013-02-08 02:54:00,
2013-02-07 20:59:00,56.7,42.1,30.09,NNW,332,2.0,8.0,58,0.00,,,0.00,meteohub,2013-02-08 02:59:00,
2013-02-07 21:04:00,56.1,41.9,30.09,NNW,338,0.0,6.0,59,0.00,,,0.00,meteohub,2013-02-08 03:04:00,
2013-02-07 21:09:00,55.9,41.9,30.10,NNW,340,0.0,8.0,59,0.00,,,0.00,meteohub,2013-02-08 03:09:00,
2013-02-07 21:14:00,55.6,41.5,30.10,NNW,340,5.0,8.0,59,0.00,,,0.00,meteohub,2013-02-08 03:14:00,
2013-02-07 21:19:00,55.2,41.2,30.10,NNW,335,0.0,8.0,59,0.00,,,0.00,meteohub,2013-02-08 03:19:00,
2013-02-07 21:25:00,55.0,41.0,30.10,NNW,328,5.0,8.0,59,0.00,,,0.00,meteohub,2013-02-08 03:25:00,
2013-02-07 21:30:00,55.0,41.0,30.10,North,355,8.0,8.0,59,0.00,,,0.00,meteohub,2013-02-08 03:30:00,
2013-02-07 21:35:00,55.0,41.0,30.10,NNW,339,8.0,10.0,59,0.00,,,0.00,meteohub,2013-02-08 03:35:00,
2013-02-07 21:40:00,54.9,40.3,30.11,NNW,332,1.0,12.0,58,0.00,,,0.00,meteohub,2013-02-08 03:40:00,
2013-02-07 21:45:00,54.7,40.3,30.11,NNW,341,4.0,12.0,58,0.00,,,0.00,meteohub,2013-02-08 03:45:00,
2013-02-07 21:50:00,54.3,40.3,30.11,NNW,332,6.0,11.0,59,0.00,,,0.00,meteohub,2013-02-08 03:50:00,
2013-02-07 21:55:00,54.1,40.1,30.12,North,355,2.0,10.0,59,0.00,,,0.00,meteohub,2013-02-08 03:55:00,
2013-02-07 22:00:00,54.0,39.9,30.12,NNW,344,8.0,10.0,59,0.00,,,0.00,meteohub,2013-02-08 04:00:00,
2013-02-07 22:05:00,53.8,40.3,30.12,NNW,343,8.0,11.0,60,0.00,,,0.00,meteohub,2013-02-08 04:05:00,
2013-02-07 22:10:00,53.8,40.3,30.12,NNW,335,0.0,11.0,60,0.00,,,0.00,meteohub,2013-02-08 04:10:00,
2013-02-07 22:15:00,53.4,39.9,30.12,NNW,340,4.0,10.0,60,0.00,,,0.00,meteohub,2013-02-08 04:15:00,
2013-02-07 22:20:00,53.2,39.7,30.13,NNW,340,4.0,10.0,60,0.00,,,0.00,meteohub,2013-02-08 04:20:00,
2013-02-07 22:25:00,53.1,39.9,30.13,NNE,22,0.0,10.0,61,0.00,,,0.00,meteohub,2013-02-08 04:25:00,
2013-02-07 22:30:00,53.1,39.9,30.13,NNW,344,0.0,7.0,61,0.00,,,0.00,meteohub,2013-02-08 04:30:00,
2013-02-07 22:35:00,52.9,40.3,30.14,NNW,344,0.0,7.0,62,0.00,,,0.00,meteohub,2013-02-08 04:35:00,
2013-02-07 22:40:00,52.3,39.7,30.13,NNW,344,0.0,6.0,62,0.00,,,0.00,meteohub,2013-02-08 04:40:00,
2013-02-07 22:45:00,52.2,39.9,30.14,NNW,344,0.0,5.0,63,0.00,,,0.00,meteohub,2013-02-08 04:45:00,
2013-02-07 22:50:00,51.6,39.4,30.14,NNW,344,0.0,0.0,63,0.00,,,0.00,meteohub,2013-02-08 04:50:00,
2013-02-07 22:55:00,51.4,39.7,30.14,NNW,344,0.0,0.0,64,0.00,,,0.00,meteohub,2013-02-08 04:55:00,
2013-02-07 23:00:00,51.1,39.7,30.14,NNW,344,0.0,0.0,65,0.00,,,0.00,meteohub,2013-02-08 05:00:00,
2013-02-07 23:01:00,51.1,39.7,30.14,NNW,344,0.0,0.0,65,0.00,,,0.00,meteohub,2013-02-08 05:01:00,
2013-02-07 23:06:00,50.7,39.7,30.14,NNW,344,0.0,0.0,66,0.00,,,0.00,meteohub,2013-02-08 05:06:00,
2013-02-07 23:11:00,50.7,39.7,30.14,NNE,32,0.0,0.0,66,0.00,,,0.00,meteohub,2013-02-08 05:11:00,
2013-02-07 23:16:00,50.5,39.6,30.14,NNE,32,0.0,6.0,66,0.00,,,0.00,meteohub,2013-02-08 05:16:00,
2013-02-07 23:21:00,50.4,39.7,30.14,NNE,32,0.0,6.0,67,0.00,,,0.00,meteohub,2013-02-08 05:21:00,
2013-02-07 23:26:00,50.2,40.1,30.14,NNE,32,0.0,0.0,68,0.00,,,0.00,meteohub,2013-02-08 05:26:00,
2013-02-07 23:31:00,49.8,40.1,30.14,NNE,32,0.0,0.0,69,0.00,,,0.00,meteohub,2013-02-08 05:31:00,
2013-02-07 23:36:00,49.6,39.9,30.14,NNE,32,0.0,0.0,69,0.00,,,0.00,meteohub,2013-02-08 05:36:00,
2013-02-07 23:41:00,49.6,39.9,30.15,NNE,32,0.0,0.0,69,0.00,,,0.00,meteohub,2013-02-08 05:41:00,
2013-02-07 23:46:00,49.5,39.7,30.14,NNE,32,0.0,0.0,69,0.00,,,0.00,meteohub,2013-02-08 05:46:00,
2013-02-07 23:51:00,49.5,39.7,30.15,NNE,32,0.0,0.0,69,0.00,,,0.00,meteohub,2013-02-08 05:51:00,
2013-02-07 23:56:00,49.5,40.1,30.15,NNE,30,0.0,0.0,70,0.00,,,0.00,meteohub,2013-02-08 05:56:00,